Flag for Switzerland Weather past 2 weeks in Schaffhausen, Schaffhausen, Switzerland

Now
64 °F

Mild.


Feels Like: 64 °F
Forecast: 51 / 82 °F
Wind: 5 mph from North

Location: Zurich-Kloten

Current Time: Jul 31, 2014 at 10:09:31 AM

Latest Report: Jul 31, 2014 at 9:00 AM


Visibility: N/A

Pressure: 30.00 "Hg

Humidity: 89%

Dew point: 61 °F

Location of SchaffhausenLocation

Historic Weather in Schaffhausen — Graph

°F

Schaffhausen temperature yesterday

Maximum temperature yesterday: 66 °F (at 8:00 PM)
Minimum temperature yesterday: 60 °F (at 4:00 AM)
Average temperature yesterday: 62 °F

Past Weeks' High & Low Weather Summary

 TemperatureHumidityPressure
High90 °F (Jul 19, 6:00 PM)100% (Jul 23, 1:00 AM)30.19 "Hg (Jul 23, 1:00 AM)
Low51 °F (Jul 19, 6:00 AM)24% (Jul 18, 5:00 PM)29.72 "Hg (Jul 28, 5:00 PM)
Average67 °F77%29.94 "Hg
* Reported Jul 16 9:00 AM — Jul 31 8:00 AM, Schaffhausen, Weather by CustomWeather, © 2014

Note: Actual official high and low records may vary slightly from our data, if they occured in-between our weather recording intervals... More about our weather records

Advertising

Schaffhausen weather history for previous 24 hours

 ConditionsComfort  
Time TempWeatherWind HumidityBarometerVisibility
8:00 AM
Jul 31
63 °FFog.2 mph96%29.99 "Hg2 mi
7:00 AM61 °FCool.2 mph98%29.99 "HgN/A
6:00 AM61 °FCool.1 mph99%29.98 "HgN/A
5:00 AM62 °FFog.2 mph99%29.98 "Hg4 mi
4:00 AM62 °FCool.1 mph97%29.98 "HgN/A
3:00 AM63 °FMild.6 mph96%29.97 "HgN/A
2:00 AM63 °FFog.3 mph98%29.97 "Hg4 mi
1:00 AM64 °FMild.2 mph96%29.96 "HgN/A
12:00 AM64 °FMild.2 mph97%29.96 "HgN/A
11:00 PM
Jul 30
64 °FLow clouds.5 mph97%29.94 "Hg6 mi
10:00 PM65 °FMild.3 mph92%29.93 "HgN/A
9:00 PM65 °FMild.3 mph93%29.90 "HgN/A
8:00 PM66 °FSprinkles. Low clouds.5 mph94%29.89 "Hg9 mi
7:00 PM65 °FMild.6 mph93%29.88 "HgN/A
6:00 PM65 °FMild.3 mph92%29.88 "HgN/A
5:00 PM65 °FFog.6 mph89%29.87 "Hg16 mi
4:00 PM65 °FMild.7 mph85%29.87 "HgN/A
3:00 PM65 °FMild.7 mph84%29.87 "HgN/A
2:00 PM64 °FDrizzle. Overcast.7 mph88%29.87 "Hg9 mi
1:00 PM63 °FMild.10 mph88%29.86 "HgN/A
12:00 PM62 °FCool.7 mph88%29.85 "HgN/A
11:00 AM60 °FLight rain. Low clouds.5 mph95%29.85 "Hg2 mi
10:00 AM60 °FCool.5 mph95%29.85 "HgN/A
Weather by CustomWeather, © 2014

See weather overviewHow to use our weather pages